Regional Weather Roundup
Issued by NWS Charleston, WV

Home | Current Version | Previous Version | Graphics & Text | Print | Product List | Glossary On
Versions: 1 2 3 4 5 6 7 8 9 10 11 12 13 14 15 16 17 18 19 20 21 22 23 24 25 26 27 28 29 30 31 32 33 34 35 36 37 38 39 40 41 42 43 44 45 46 47 48 49 50
000
ASUS41 KRLX 031410
RWRRLX
West Virginia Regional Weather Roundup
National Weather Service Charleston WV
900 AM EST TUE MAR 03 2015

Note: "fair" indicates few or no clouds below 12,000 feet with no
significant weather and/or obstructions to visibility.

WVZ003-031500-
Northern Panhandle of West Virginia

CITY           SKY/WX    TMP DP  RH WIND       PRES   REMARKS
WHEELING       CLOUDY    26  15  63 SE6       30.13F
$$

WVZ009-031500-
Northwest West Virginia

CITY           SKY/WX    TMP DP  RH WIND       PRES   REMARKS
PARKERSBURG    MIX PCPN  31  19  61 E5        30.14F
$$

WVZ006-031500-
Western West Virginia

CITY           SKY/WX    TMP DP  RH WIND       PRES   REMARKS
HUNTINGTON     CLOUDY    31  26  82 SE3       30.12F
$$

WVZ015-031500-
West Central West Virginia

CITY           SKY/WX    TMP DP  RH WIND       PRES   REMARKS
CHARLESTON     FRZ RAIN  31  27  85 CALM      30.14F FOG
$$

WVZ022-031-031500-
North Central West Virginia

CITY           SKY/WX    TMP DP  RH WIND       PRES   REMARKS
CLARKSBURG     CLOUDY    31  20  63 S3        30.14F
MORGANTOWN     CLOUDY    33  15  47 SE6       30.15F
$$

WVZ025-035-042-045-031500-
Southern West Virginia

CITY           SKY/WX    TMP DP  RH WIND       PRES   REMARKS
BECKLEY        CLOUDY    33  25  72 SE10G16   30.18S
LOGAN          CLOUDY    39  32  75 S7        30.12R
BLUEFIELD      CLOUDY    36  25  64 S12G22    30.19F
LEWISBURG      CLOUDY    32  23  68 N7        30.25S
$$

WVZ047-031500-
Northern Mountains of West Virginia

CITY           SKY/WX    TMP DP  RH WIND       PRES   REMARKS
ELKINS         CLOUDY    29  23  78 CALM      30.18F
$$

WVZ052-031500-
Eastern Panhandle of West Virginia

CITY           SKY/WX    TMP DP  RH WIND       PRES   REMARKS
MARTINSBURG    PTSUNNY   30  14  51 SE6       30.39F
PETERSBURG     CLOUDY    29  16  57 CALM      30.33F
$$



USA.gov is the U.S. government's official web portal to all federal, state and local government web resources and services.